This is the latest recevied weather packets stored in our database for station/object VA3ZFM-10. If no packets are shown the sender has not sent any weather packets the latest 10 day(s).
| Time | Temp. | Humidity | Pressure | Rain* | Wind** | Luminosity | Snow |
|---|---|---|---|---|---|---|---|
| 1778268094 | 10.56° C | 37% | 1008.2 hPa | 0 mm | - | - | - |
| 1778267790 | 10.56° C | 36% | 1008.3 hPa | 0 mm | - | - | - |
| 1778267487 | 10.56° C | 35% | 1008.1 hPa | 0 mm | - | - | - |
| 1778267185 | 10.56° C | 37% | 1008.2 hPa | 0 mm | - | - | - |
| 1778266881 | 10° C | 37% | 1008.2 hPa | 0 mm | - | - | - |
| 1778266578 | 10° C | 37% | 1008.4 hPa | 0 mm | - | - | - |
| 1778266275 | 9.44° C | 37% | 1008.2 hPa | 0 mm | - | - | - |
| 1778265972 | 10° C | 37% | 1008.1 hPa | 0 mm | - | - | - |
| 1778265669 | 9.44° C | 37% | 1008.1 hPa | 0 mm | - | - | - |
| 1778265366 | 10° C | 37% | 1007.9 hPa | 0 mm | - | - | - |
| 1778265062 | 10° C | 36% | 1008 hPa | 0 mm | - | - | - |
| 1778264758 | 10° C | 37% | 1008.1 hPa | 0 mm | - | - | - |
| 1778264455 | 10° C | 37% | 1008.2 hPa | 0 mm | - | - | - |
| 1778264149 | 10° C | 38% | 1008.1 hPa | 0 mm | - | - | - |
| 1778263848 | 10° C | 37% | 1008.2 hPa | 0 mm | - | - | - |
| 1778263544 | 10° C | 37% | 1008.3 hPa | 0 mm | - | - | - |
| 1778263240 | 10° C | 37% | 1008.2 hPa | 0 mm | - | - | - |
| 1778262937 | 10° C | 36% | 1008.1 hPa | 0 mm | - | - | - |
| 1778262634 | 10.56° C | 35% | 1008.2 hPa | 0 mm | - | - | - |
| 1778262332 | 11.11° C | 33% | 1008.3 hPa | 0 mm | - | - | - |
| 1778262029 | 10.56° C | 35% | 1008.2 hPa | 0 mm | - | - | - |
| 1778261726 | 10.56° C | 35% | 1008.2 hPa | 0 mm | - | - | - |
| 1778261421 | 10° C | 38% | 1008.3 hPa | 0 mm | - | - | - |
| 1778261119 | 9.44° C | 37% | 1008.4 hPa | 0 mm | - | - | - |
| 1778260815 | 9.44° C | 37% | 1008.4 hPa | 0 mm | - | - | - |
* Rain latest hour (hover to see other rain measurements)
** Current wind speed in m/s (hover to see current wind gust speed)